Regional Weather Roundup
Issued by NWS

Home | Current Version | Previous Version | Graphics & Text | Print | Product List | Glossary On
Versions: 1 2 3 4 5 6 7 8 9 10 11 12 13 14 15 16 17 18 19 20 21 22 23 24 25 26 27 28 29 30 31 32 33 34 35 36 37 38 39 40 41 42 43 44 45 46 47 48 49 50
000
ASUS43 KBIS 240810
RWRND

NORTH DAKOTA REGIONAL WEATHER ROUNDUP
NATIONAL WEATHER SERVICE BISMARCK ND
300 AM CDT SUN JUL 24 2016

NOTE: "FAIR" INDICATES FEW OR NO CLOUDS BELOW 12,000 FEET WITH NO
SIGNIFICANT WEATHER AND/OR OBSTRUCTIONS TO VISIBILITY.


NDZ001>003-009>011-017-240900-
NORTHWEST NORTH DAKOTA

CITY           SKY/WX    TMP DP  RH WIND       PRES   REMARKS
WILLISTON      CLEAR     62  53  72 W13       29.99S
MINOT          CLEAR     67  58  72 W14       29.90R
MINOT AFB      CLEAR     62  58  87 W13       29.88R
$$

NDZ018>021-031>035-040>046-240900-
SOUTHWEST NORTH DAKOTA

CITY           SKY/WX    TMP DP  RH WIND       PRES   REMARKS
BISMARCK       CLEAR     63  57  81 W6        29.95S
DICKINSON      CLEAR     55  50  83 NW9       30.01S
GARRISON         N/A     62  58  86 NW10      29.94R
HETTINGER ARPT CLEAR     53  47  79 W3        30.08R
$$

NDZ004>008-012>016-024-026-027-054-240900-
NORTHEAST NORTH DAKOTA

CITY           SKY/WX    TMP DP  RH WIND       PRES   REMARKS
GRAND FORKS    CLEAR     65  60  84 W12       29.76R
GRND FRKS AFB  CLEAR     65  60  84 W8        29.78R
DEVILS LAKE    CLEAR     65  60  84 W14       29.84R
$$

NDZ022-023-025-028>030-036>039-047>053-240900-
SOUTHEAST NORTH DAKOTA

CITY           SKY/WX    TMP DP  RH WIND       PRES   REMARKS
FARGO          CLEAR     67  62  84 W10       29.80R
JAMESTOWN      CLEAR     65  58  78 NW13      29.88R
$$





USA.gov is the U.S. government's official web portal to all federal, state and local government web resources and services.